Location: Tr�vern
(48.0333°N, 4.6000°W)
Time: 17:00:20
(UTC+00:00)

ATLAS 5 CENTAUR R/B - Pass Details

Date: 14 July 2020
Orbit: 534 x 1124 km, 63.4° (Epoch: 06 August)

Event Time Altitude Azimuth Distance (km) Brightness Sun altitude
Rises 03:17:11 0° 317° (NW) 3,278 5.4 -10.3°
Reaches altitude 10° 03:19:27 10° 315° (NW) 2,432 4.7 -10.1°
Maximum altitude 03:25:06 66° 234° (SW) 1,006 2.4 -9.5°
Drops below altitude 10° 03:31:40 10° 154° (SSE) 2,811 4.7 -8.7°
Sets 03:34:28 0° 152° (SSE) 3,826 5.4 -8.4°
